• In Hungary
  • List of Countries
  • For 7 days
  • Water Temperature
  • Satellite Maps
  • Weather Map
  • News
  • Weather Widgets
  • user-avatar
    Login

    Hourly Weather Amman

    Today, 23 January, Tuesday

    Time Temperature Precipitation Wind Pressure Humidity
    00:00 +9°C° 0 mm 3 mps 687 mmHg 51%
    01:00 +8°C° 0 mm 4 mps 687 mmHg 53%
    02:00 +8°C° 0 mm 4 mps 687 mmHg 53%
    03:00 +8°C° 0 mm 5 mps 687 mmHg 57%
    04:00 +8°C° 0 mm 5 mps 687 mmHg 61%
    05:00 +8°C° 0 mm 5 mps 687 mmHg 65%
    06:00 +8°C° 0.2 mm 6 mps 687 mmHg 68%
    07:00 +8°C° 0.2 mm 6 mps 688 mmHg 72%
    08:00 +8°C° 0.2 mm 6 mps 688 mmHg 75%
    09:00 +9°C° 0.2 mm 7 mps 688 mmHg 72%
    10:00 +9°C° 0.2 mm 8 mps 688 mmHg 70%
    11:00 +10°C° 0.2 mm 9 mps 689 mmHg 67%
    12:00 +10°C° 0.1 mm 9 mps 689 mmHg 65%
    13:00 +10°C° 0.1 mm 9 mps 689 mmHg 63%
    14:00 +10°C° 0.1 mm 9 mps 689 mmHg 60%
    15:00 +10°C° 0 mm 8 mps 689 mmHg 64%
    16:00 +9°C° 0 mm 7 mps 689 mmHg 67%
    17:00 +9°C° 0 mm 6 mps 689 mmHg 70%
    18:00 +8°C° 0 mm 5 mps 689 mmHg 73%
    19:00 +8°C° 0 mm 4 mps 690 mmHg 76%
    20:00 +9°C° 0 mm 3 mps 690 mmHg 79%
    21:00 +8°C° 0 mm 3 mps 690 mmHg 81%
    22:00 +8°C° 0 mm 2 mps 690 mmHg 82%
    23:00 +8°C° 0 mm 2 mps 690 mmHg 83%

    Tomorrow, 24 January, Wednesday

    Time Temperature Precipitation Wind Pressure Humidity
    00:00 +8°C° 0 mm 2 mps 690 mmHg 83%
    01:00 +7°C° 0 mm 2 mps 690 mmHg 84%
    02:00 +8°C° 0 mm 1 mps 690 mmHg 84%
    03:00 +8°C° 0 mm 1 mps 690 mmHg 84%
    04:00 +8°C° 0 mm 1 mps 690 mmHg 84%
    05:00 +8°C° 0 mm 1 mps 690 mmHg 84%
    06:00 +7°C° 0 mm 2 mps 690 mmHg 81%
    07:00 +7°C° 0 mm 2 mps 690 mmHg 79%
    08:00 +8°C° 0 mm 2 mps 691 mmHg 76%
    09:00 +9°C° 0 mm 2 mps 691 mmHg 69%
    10:00 +10°C° 0 mm 2 mps 691 mmHg 62%
    11:00 +11°C° 0 mm 3 mps 691 mmHg 55%
    12:00 +11°C° 0 mm 3 mps 691 mmHg 53%
    13:00 +12°C° 0 mm 3 mps 690 mmHg 50%
    14:00 +12°C° 0 mm 3 mps 690 mmHg 47%
    15:00 +13°C° 0 mm 2 mps 690 mmHg 50%
    16:00 +12°C° 0 mm 2 mps 690 mmHg 53%
    17:00 +12°C° 0 mm 2 mps 690 mmHg 55%
    18:00 +10°C° 0 mm 2 mps 690 mmHg 60%
    19:00 +10°C° 0 mm 2 mps 690 mmHg 64%
    20:00 +10°C° 0 mm 1 mps 690 mmHg 68%
    21:00 +10°C° 0 mm 1 mps 690 mmHg 71%
    22:00 +9°C° 0 mm 1 mps 689 mmHg 74%
    23:00 +9°C° 0 mm 1 mps 689 mmHg 76%

    Day after tomorrow, 25 January, Thursday

    Time Temperature Precipitation Wind Pressure Humidity
    00:00 +9°C° 0 mm 1 mps 689 mmHg 78%
    01:00 +8°C° 0 mm 1 mps 689 mmHg 79%
    02:00 +8°C° 0 mm 1 mps 689 mmHg 81%
    03:00 +8°C° 0.1 mm 1 mps 688 mmHg 82%
    04:00 +8°C° 0.1 mm 1 mps 688 mmHg 83%
    05:00 +7°C° 0.1 mm 1 mps 688 mmHg 84%
    06:00 +8°C° 0.1 mm 1 mps 688 mmHg 82%
    07:00 +7°C° 0.1 mm 2 mps 688 mmHg 80%
    08:00 +7°C° 0.1 mm 2 mps 688 mmHg 78%
    09:00 +8°C° 0.3 mm 3 mps 688 mmHg 74%
    10:00 +8°C° 0.3 mm 4 mps 688 mmHg 69%
    11:00 +8°C° 0.3 mm 5 mps 688 mmHg 64%
    12:00 +8°C° 0.3 mm 5 mps 688 mmHg 64%
    13:00 +8°C° 0.3 mm 5 mps 688 mmHg 65%
    14:00 +8°C° 0.3 mm 5 mps 687 mmHg 65%
    15:00 +8°C° 0.3 mm 5 mps 687 mmHg 68%
    16:00 +8°C° 0.3 mm 5 mps 687 mmHg 71%
    17:00 +7°C° 0.3 mm 5 mps 687 mmHg 74%
    18:00 +7°C° 0.2 mm 5 mps 687 mmHg 75%
    19:00 +7°C° 0.2 mm 5 mps 688 mmHg 75%
    20:00 +6°C° 0.2 mm 5 mps 688 mmHg 76%
    21:00 +6°C° 0 mm 5 mps 688 mmHg 76%
    22:00 +6°C° 0 mm 5 mps 688 mmHg 76%
    23:00 +6°C° 0 mm 4 mps 688 mmHg 76%

    26 January, Friday

    Time Temperature Precipitation Wind Pressure Humidity
    00:00 +5°C° 0.3 mm 5 mps 688 mmHg 77%
    01:00 +4°C° 0.3 mm 6 mps 688 mmHg 78%
    02:00 +4°C° 0.3 mm 7 mps 688 mmHg 80%
    03:00 +4°C° 0 mm 7 mps 688 mmHg 77%
    04:00 +3°C° 0 mm 7 mps 688 mmHg 75%
    05:00 +2°C° 0 mm 6 mps 688 mmHg 73%
    06:00 +2°C° 0 mm 7 mps 688 mmHg 71%
    07:00 +2°C° 0 mm 7 mps 688 mmHg 69%
    08:00 +2°C° 0 mm 7 mps 689 mmHg 67%
    09:00 +2°C° 0 mm 8 mps 689 mmHg 63%
    10:00 +3°C° 0 mm 9 mps 689 mmHg 59%
    11:00 +3°C° 0 mm 10 mps 689 mmHg 55%
    12:00 +3°C° 0.2 mm 10 mps 689 mmHg 55%
    13:00 +3°C° 0.2 mm 10 mps 689 mmHg 54%
    14:00 +3°C° 0.2 mm 10 mps 688 mmHg 54%
    15:00 +3°C° 0.4 mm 9 mps 688 mmHg 58%
    16:00 +2°C° 0.4 mm 9 mps 688 mmHg 63%
    17:00 +2°C° 0.4 mm 8 mps 688 mmHg 67%
    18:00 +3°C° 0.4 mm 7 mps 689 mmHg 70%
    19:00 +3°C° 0.4 mm 7 mps 689 mmHg 73%
    20:00 +3°C° 0.4 mm 6 mps 689 mmHg 76%
    21:00 +3°C° 0 mm 6 mps 689 mmHg 77%
    22:00 +3°C° 0 mm 5 mps 690 mmHg 78%
    23:00 +3°C° 0 mm 5 mps 690 mmHg 79%

    27 January, Saturday

    Time Temperature Precipitation Wind Pressure Humidity
    00:00 +3°C° 0 mm 5 mps 690 mmHg 80%
    01:00 +2°C° 0 mm 5 mps 690 mmHg 81%
    02:00 +2°C° 0 mm 5 mps 690 mmHg 81%
    03:00 +3°C° 0 mm 4 mps 691 mmHg 82%
    04:00 +3°C° 0 mm 4 mps 691 mmHg 82%
    05:00 +3°C° 0 mm 4 mps 691 mmHg 83%
    06:00 +3°C° 0 mm 4 mps 691 mmHg 82%
    07:00 +4°C° 0 mm 4 mps 692 mmHg 82%
    08:00 +4°C° 0 mm 4 mps 692 mmHg 81%
    09:00 +5°C° 0 mm 5 mps 693 mmHg 76%
    10:00 +6°C° 0 mm 5 mps 693 mmHg 72%
    11:00 +7°C° 0 mm 5 mps 694 mmHg 67%
    12:00 +7°C° 0 mm 5 mps 693 mmHg 66%
    13:00 +8°C° 0 mm 5 mps 693 mmHg 65%
    14:00 +8°C° 0 mm 5 mps 693 mmHg 63%
    15:00 +7°C° 0 mm 5 mps 693 mmHg 67%
    16:00 +7°C° 0 mm 5 mps 694 mmHg 70%
    17:00 +7°C° 0 mm 4 mps 694 mmHg 73%
    18:00 +6°C° 0 mm 4 mps 694 mmHg 76%
    19:00 +7°C° 0 mm 3 mps 694 mmHg 79%
    20:00 +5°C° 0 mm 3 mps 695 mmHg 82%
    21:00 +5°C° 0 mm 3 mps 695 mmHg 84%
    22:00 +5°C° 0 mm 3 mps 695 mmHg 86%
    23:00 +5°C° 0 mm 3 mps 695 mmHg 88%

    28 January, Sunday

    Time Temperature Precipitation Wind Pressure Humidity
    00:00 +5°C° 0 mm 2 mps 695 mmHg 88%
    01:00 +5°C° 0 mm 2 mps 695 mmHg 88%
    02:00 +5°C° 0 mm 2 mps 695 mmHg 89%
    03:00 +5°C° 0 mm 2 mps 695 mmHg 89%
    04:00 +5°C° 0 mm 2 mps 695 mmHg 89%
    05:00 +4°C° 0 mm 2 mps 695 mmHg 89%
    06:00 +5°C° 0 mm 2 mps 695 mmHg 86%
    07:00 +5°C° 0 mm 2 mps 696 mmHg 84%
    08:00 +6°C° 0 mm 2 mps 696 mmHg 81%
    09:00 +7°C° 0 mm 2 mps 696 mmHg 74%
    10:00 +8°C° 0 mm 3 mps 697 mmHg 67%
    11:00 +9°C° 0 mm 3 mps 697 mmHg 60%
    12:00 +10°C° 0 mm 3 mps 697 mmHg 57%
    13:00 +10°C° 0 mm 3 mps 696 mmHg 55%
    14:00 +11°C° 0 mm 3 mps 696 mmHg 52%
    15:00 +10°C° 0 mm 3 mps 696 mmHg 55%
    16:00 +10°C° 0 mm 3 mps 696 mmHg 58%
    17:00 +9°C° 0 mm 3 mps 696 mmHg 61%
    18:00 +8°C° 0 mm 2 mps 696 mmHg 66%
    19:00 +8°C° 0 mm 2 mps 696 mmHg 71%
    20:00 +7°C° 0 mm 2 mps 696 mmHg 75%
    21:00 +8°C° 0 mm 1 mps 696 mmHg 77%
    22:00 +7°C° 0 mm 1 mps 695 mmHg 80%
    23:00 +7°C° 0 mm 1 mps 695 mmHg 82%
    Show more